This is the latest recevied weather packets stored in our database for station/object KN6KDD. If no packets are shown the sender has not sent any weather packets the latest 1 day(s).
| Time | Temp. | Humidity | Pressure | Rain* | Wind** | Luminosity | Snow |
|---|---|---|---|---|---|---|---|
| 1778050595 | 11.67° C | 94% | 1358.6 hPa | 0 mm | 0 m/s | 0 W/m² | - |
| 1778050291 | 11.67° C | 94% | 1358.6 hPa | 0 mm | 0.89 m/s, 315° | 0 W/m² | - |
| 1778049988 | 11.67° C | 94% | 1358.6 hPa | 0 mm | 0.89 m/s, 318° | 0 W/m² | - |
| 1778049684 | 11.67° C | 94% | 1358.6 hPa | 0 mm | 1.34 m/s, 324° | 0 W/m² | - |
| 1778049382 | 11.67° C | 94% | 1358.4 hPa | 0 mm | 1.34 m/s, 0° | 0 W/m² | - |
| 1778049079 | 11.67° C | 94% | 1358.2 hPa | 0 mm | 0.89 m/s, 334° | 0 W/m² | - |
| 1778048778 | 11.67° C | 94% | 1358.2 hPa | 0 mm | 1.34 m/s, 359° | 0 W/m² | - |
| 1778048474 | 11.67° C | 94% | 1358.2 hPa | 0 mm | 0.89 m/s, 308° | 0 W/m² | - |
| 1778048170 | 11.67° C | 94% | 1358.3 hPa | 0 mm | 1.34 m/s, 347° | 0 W/m² | - |
| 1778047868 | 11.67° C | 94% | 1358.2 hPa | 0 mm | 1.34 m/s, 333° | 0 W/m² | - |
| 1778047574 | 11.67° C | 93% | 1358.2 hPa | 0 mm | 0.89 m/s, 338° | 0 W/m² | - |
| 1778047263 | 11.67° C | 93% | 1357.9 hPa | 0 mm | 0 m/s | 0 W/m² | - |
| 1778046960 | 11.67° C | 93% | 1358.3 hPa | 0 mm | 0.89 m/s, 305° | 0 W/m² | - |
| 1778046657 | 11.67° C | 94% | 1358 hPa | 0 mm | 1.34 m/s, 313° | 0 W/m² | - |
| 1778046354 | 11.67° C | 93% | 1358.3 hPa | 0 mm | 1.34 m/s, 343° | 0 W/m² | - |
| 1778046049 | 11.67° C | 93% | 1357.9 hPa | 0 mm | 0.89 m/s, 320° | 0 W/m² | - |
| 1778045748 | 11.67° C | 93% | 1358.2 hPa | 0 mm | 0 m/s | 0 W/m² | - |
| 1778045446 | 11.67° C | 93% | 1357.8 hPa | 0 mm | 1.34 m/s, 330° | 0 W/m² | - |
| 1778045144 | 11.67° C | 93% | 1358 hPa | 0 mm | 0 m/s | 0 W/m² | - |
| 1778044841 | 11.67° C | 93% | 1357.8 hPa | 0 mm | 1.34 m/s, 320° | 0 W/m² | - |
| 1778044538 | 11.67° C | 92% | 1357.5 hPa | 0 mm | 1.34 m/s, 321° | 0 W/m² | - |
| 1778044235 | 11.67° C | 92% | 1357.8 hPa | 0 mm | 0.89 m/s, 255° | 0 W/m² | - |
| 1778043933 | 11.67° C | 91% | 1357.5 hPa | 0 mm | 0.89 m/s, 251° | 0 W/m² | - |
| 1778043630 | 11.67° C | 92% | 1357.5 hPa | 0 mm | 0.45 m/s, 264° | 0 W/m² | - |
| 1778043326 | 11.67° C | 91% | 1357.5 hPa | 0 mm | 0.89 m/s, 266° | 0 W/m² | - |
* Rain latest hour (hover to see other rain measurements)
** Current wind speed in m/s (hover to see current wind gust speed)